Simultaneous Nadir Overpasses (SNOs) Predictions

Prediction of SNOs between GOES-15 and TERRA Satellite Orbit:

Table of predicted SNOs for the next 14.0 days since TLE Epoch: 4/27/2024
Index Date Time (GOES-15) GOES-15 Lat,Lon TERRA Lat,Lon Distance(km) Time Diff (sec)
1 04/27/2024 05:58:53 -0.14, 61.39 0.63, 57.54 436.19 80
2 04/29/2024 05:44:20 -0.15, 61.42 -0.18, 61.70 31.70 80
3 05/01/2024 05:27:08 -0.16, 61.45 -1.10, 65.84 499.09 80
4 05/01/2024 17:47:15 0.16, 61.43 0.08, 60.95 54.67 80
5 05/03/2024 17:27:21 0.16, 61.47 0.94, 65.11 413.28 80
6 05/04/2024 05:47:18 -0.16, 61.51 0.08, 60.26 142.33 80
7 05/06/2024 05:32:43 -0.16, 61.55 -0.78, 64.42 325.84 80
8 05/06/2024 17:52:49 0.16, 61.54 -0.27, 59.53 227.75 80
9 05/08/2024 17:32:53 0.17, 61.58 0.58, 63.70 240.05 80
10 05/09/2024 05:55:29 -0.16, 61.63 0.40, 58.84 315.62 80
